Orbital Elements at Epoch 2459200.5 (2020-Dec-17.0) TDB
Reference: JPL 3 (heliocentric ecliptic J2000)
Element | Value | Uncertainty (1-sigma) | Units |
e | .3239357351874968 | 0.00043266 | |
a | 1.034544928951957 | 0.00024257 | au |
q | .6994188568074085 | 0.00028376 | au |
i | 9.229983003924323 | 0.014338 | deg |
node | 221.8169833239314 | 0.00067711 | deg |
peri | 290.5471686729662 | 0.0032339 | deg |
M | 291.6240771228723 | 0.19976 | deg |
tp | 2459273.500050674221 (2021-Feb-28.00005067) | 0.23894 | TDB |
period | 384.3460846582648 1.05 | 0.13518 0.0003701 | d yr |
n | .9366558275729238 | 0.00032943 | deg/d |
Q | 1.369671001096506 | 0.00032115 | au |
|
| | Orbit Determination Parameters
Additional Information
|